CAPE
1482 1002 1225 934 452 396 330 100 33 6 0 0 0 0 2 0 0 0 0 0 0 0 0 0 0 0 0 0 0 0 0 0 0 0 0 0 0 0 0 0 0 0
1412 1299 1033 1084 892 854 802 389 216 17 4 5 5 8 4 3 5 0 0 0 0 0 3 2 0 0 0 0 0 0 0 0 0 0 0 0 0 0 0 0 0 0
1160 1178 1186 1024 749 868 876 675 463 232 42 16 25 11 11 18 13 1 2 2 0 9 28 28 9 0 0 0 0 0 0 0 0 0 0 0 0 0 0 0 0 0
1165 1182 1107 1158 912 704 507 361 203 172 325 54 26 18 39 28 22 14 14 11 17 16 29 46 45 5 0 1 0 0 0 0 0 0 0 0 0 0 0 0 0 0
1134 1102 1006 1111 982 809 549 364 196 55 80 137 86 40 29 38 20 20 50 82 63 47 41 54 73 43 40 30 22 11 0 0 0 0 0 0 0 0 0 0 0 0
1108 1027 1081 1220 1201 956 468 308 219 202 101 286 239 59 64 51 44 61 94 135 124 108 107 95 96 105 62 54 63 55 77 18 1 0 0 0 0 0 0 0 0 0
1327 1164 1163 1046 928 814 618 450 339 304 361 280 232 336 302 230 128 122 99 184 208 158 164 184 166 161 161 152 126 95 44 58 64 58 17 2 0 0 0 0 0 0
1542 1403 1233 1103 1018 926 767 673 639 452 548 357 247 312 318 335 212 222 189 237 246 290 309 288 278 269 231 237 213 257 207 123 128 53 69 58 44 8 0 0 0 0
1596 1459 1287 1262 1194 988 996 756 621 720 643 492 409 312 303 177 262 340 362 363 378 382 357 360 367 415 470 444 363 362 397 388 291 230 196 159 195 171 73 4 0 0
1518 1380 1356 1414 1418 1133 1073 929 866 924 689 616 423 476 516 396 408 421 427 486 484 480 460 476 465 546 516 449 452 448 363 402 440 454 436 409 241 174 96 88 136 58
1290 1335 1302 1348 1403 1247 1273 1154 1160 889 692 702 745 629 553 592 654 636 658 595 720 601 608 581 606 616 617 676 783 718 657 624 587 458 570 568 645 556 236 329 238 207
1449 1357 1283 1244 1148 1261 1566 1327 1131 1024 1001 944 966 723 986 907 784 787 772 845 874 678 590 576 540 602 600 646 643 739 815 808 746 708 659 582 571 492 621 664 594 466
1244 1218 1271 1396 1106 1003 1328 1294 1284 1250 1206 1062 858 927 987 1060 1076 1007 990 891 785 698 659 660 658 715 718 806 723 727 870 790 938 954 817 780 687 594 657 761 756 628
1148 1152 822 720 758 977 1045 1204 1233 1203 1101 1018 1041 1086 1091 1035 1059 919 995 953 859 815 779 813 888 828 843 936 1010 1077 1030 853 993 1087 1040 1002 1046 907 961 893 831 762
1054 865 680 778 951 1065 775 1028 1219 1272 1101 1115 1088 1141 1148 1033 966 906 1065 922 976 960 926 935 942 1133 1136 1015 974 994 940 1000 1123 1172 1229 1242 1263 1035 787 512 483 657
929 932 739 853 787 716 725 1049 1125 1299 1319 1165 917 969 828 757 948 1124 1176 1250 1067 1009 1202 1124 1113 1118 0 0 11 745 1076 941 1093 1193 1129 1279 1136 989 971 700 650 667
829 816 928 747 812 552 960 1111 1101 1171 820 650 712 804 664 693 594 1045 953 1005 955 1063 1144 1179 1050 277 19 5 12 0 649 871 654 602 687 729 824 1186 1071 980 1227 906
875 615 536 846 920 1003 1007 966 940 995 946 985 1025 1127 1020 961 955 958 1044 1101 1176 1162 1206 1114 343 102 0 0 0 0 0 537 614 468 510 388 382 300 274 383 298 353
1088 977 919 865 844 751 837 742 866 1112 1230 1014 1028 926 821 967 1052 983 993 1036 985 755 444 61 24 0 0 0 0 0 0 149 528 743 464 468 574 396 251 166 144 109
670 730 738 734 696 746 739 753 989 965 808 855 849 806 862 954 1233 1029 646 433 257 85 53 21 4 0 0 0 0 0 0 103 489 682 670 627 697 694 642 367 279 184
35 66 149 279 330 295 562 783 1031 1065 936 812 855 709 666 534 360 142 123 57 39 10 5 10 0 0 0 0 0 0 0 18 420 584 421 551 630 660 597 498 431 336
3 8 25 60 84 97 104 138 180 179 156 107 114 119 100 72 14 2 6 4 0 0 0 0 0 0 0 0 0 0 0 592 198 272 238 236 361 433 318 283 311 308
0 0 2 10 13 19 28 53 92 107 64 36 38 20 5 1 17 5 0 0 0 2 1 0 2 0 0 0 0 0 39 10 0 0 17 110 230 225 132 19 6 33
0 0 0 0 1 2 10 28 25 20 29 7 7 4 3 8 1 0 2 4 11 28 18 22 15 0 0 0 0 0 0 358 0 0 0 0 54 44 4 0 0 0
0 0 0 0 0 7 24 53 51 27 31 29 22 5 11 4 0 5 20 25 53 121 3 128 54 0 0 0 0 0 0 120 0 0 0 0 0 0 0 0 0 0
0 0 0 0 0 0 0 0 20 276 118 79 55 10 31 0 0 0 13 2 58 51 50 106 68 26 0 0 0 0 0 3 0 0 0 0 0 0 0 0 0 0
Wind_Speed
19 17 17 19 20 22 22 24 nan nan nan nan nan nan nan nan nan nan nan nan nan nan nan nan nan nan nan nan nan nan nan nan nan nan nan nan nan nan nan nan nan nan
22 18 16 16 18 19 20 22 23 nan nan nan nan nan nan nan nan nan nan nan nan nan nan nan nan nan nan nan nan nan nan nan nan nan nan nan nan nan nan nan nan nan
20 18 17 17 17 19 20 21 21 22 nan nan nan nan nan nan nan nan nan nan nan nan nan nan nan nan nan nan nan nan nan nan nan nan nan nan nan nan nan nan nan nan
16 16 16 17 18 18 18 19 20 21 22 nan nan nan nan nan nan nan nan nan nan nan nan nan nan nan nan nan nan nan nan nan nan nan nan nan nan nan nan nan nan nan
15 15 15 15 16 16 17 18 19 nan nan 22 nan nan nan nan nan nan nan nan nan nan nan nan nan nan nan nan nan nan nan nan nan nan nan nan nan nan nan nan nan nan
15 14 15 16 17 17 17 18 19 20 22 22 24 nan nan nan nan nan nan 20 20 22 21 nan nan 19 nan nan nan nan nan nan nan nan nan nan nan nan nan nan nan nan
15 15 16 17 18 17 16 17 18 20 21 22 23 24 24 22 20 18 nan 18 20 20 21 22 22 20 19 17 17 nan nan nan nan nan nan nan nan nan nan nan nan nan
15 16 16 17 16 15 14 16 17 19 21 22 22 22 23 23 22 20 18 18 19 20 20 21 21 21 18 16 16 16 16 15 14 nan nan nan nan nan nan nan nan nan
15 15 15 15 14 14 14 15 16 18 20 21 21 22 22 23 23 20 19 18 18 19 20 20 20 20 18 17 18 18 17 18 17 18 18 18 18 18 nan nan nan nan
14 15 14 15 15 15 15 17 18 19 20 21 23 23 24 24 23 20 19 18 18 18 20 20 20 19 19 20 21 21 19 19 19 20 20 19 19 19 nan nan 20 nan
15 16 15 16 17 17 17 18 19 19 19 20 21 21 21 21 20 19 18 18 18 17 19 20 21 20 21 22 23 21 20 19 18 19 20 19 20 20 21 21 23 22
18 19 19 19 20 19 19 20 20 19 18 17 18 19 19 18 18 18 16 17 17 18 20 22 23 24 23 24 23 23 22 21 20 21 19 18 19 20 20 21 22 21
20 22 23 23 22 20 18 20 20 20 19 18 17 18 19 18 17 18 18 16 16 17 20 22 24 24 24 24 23 23 24 24 22 21 20 20 19 19 20 21 21 21
21 23 24 18 16 18 20 19 19 20 19 20 19 19 19 18 18 19 20 19 19 18 20 23 24 24 25 25 25 26 26 26 24 22 21 21 21 22 24 25 25 23
22 24 23 22 21 22 25 20 20 21 22 24 25 25 23 22 21 21 21 21 21 21 23 25 25 27 28 28 27 27 28 28 26 25 24 24 24 27 30 28 27 26
23 24 24 27 29 27 25 25 25 26 27 30 30 31 31 27 23 24 25 26 26 27 27 28 28 31 nan nan nan 31 31 31 30 29 28 29 29 31 33 30 31 31
29 30 30 31 31 32 31 30 31 33 33 34 32 33 34 30 24 27 29 31 30 31 31 32 34 35 nan nan nan nan 32 34 35 36 36 37 37 36 36 35 34 35
35 34 33 35 36 37 36 35 36 36 36 37 38 38 37 35 35 35 36 36 36 37 37 38 39 40 nan nan nan nan nan 37 39 40 41 41 40 39 39 39 38 39
40 39 39 39 40 41 42 41 38 38 40 42 42 43 43 41 41 41 40 41 41 42 44 nan nan nan nan nan nan nan nan 38 44 44 42 42 41 40 40 41 41 40
45 44 44 43 42 42 43 41 41 41 43 44 46 45 46 44 41 41 44 46 47 nan nan nan nan nan nan nan nan nan nan 38 45 44 44 43 43 42 41 42 41 40
nan nan 45 44 44 43 44 45 46 47 47 48 48 49 50 47 45 47 49 nan nan nan nan nan nan nan nan nan nan nan nan nan 45 44 44 45 45 45 43 43 42 42
nan nan nan nan nan nan 46 47 48 48 49 49 48 49 50 nan nan nan nan nan nan nan nan nan nan nan nan nan nan nan nan 40 46 46 47 47 48 48 47 46 46 45
nan nan nan nan nan nan nan nan nan 47 nan nan nan nan nan nan nan nan nan nan nan nan nan nan nan nan nan nan nan nan nan nan nan nan nan 48 49 48 50 nan nan nan
nan nan nan nan nan nan nan nan nan nan nan nan nan nan nan nan nan nan nan nan nan nan nan nan nan nan nan nan nan nan nan 42 nan nan nan nan nan nan nan nan nan nan
nan nan nan nan nan nan nan nan nan nan nan nan nan nan nan nan nan nan nan nan nan 49 nan 46 nan nan nan nan nan nan nan 38 nan nan nan nan nan nan nan nan nan nan
nan nan nan nan nan nan nan nan nan 40 36 nan nan nan nan nan nan nan nan nan nan nan nan 42 nan nan nan nan nan nan nan nan nan nan nan nan nan nan nan nan nan nan
Wind_Direction
265 265 261 260 261 266 269 271 nan nan nan nan nan nan nan nan nan nan nan nan nan nan nan nan nan nan nan nan nan nan nan nan nan nan nan nan nan nan nan nan nan nan
264 263 259 256 258 261 263 267 268 nan nan nan nan nan nan nan nan nan nan nan nan nan nan nan nan nan nan nan nan nan nan nan nan nan nan nan nan nan nan nan nan nan
262 259 256 260 262 268 264 263 266 269 nan nan nan nan nan nan nan nan nan nan nan nan nan nan nan nan nan nan nan nan nan nan nan nan nan nan nan nan nan nan nan nan
253 254 256 260 261 266 264 265 266 267 268 nan nan nan nan nan nan nan nan nan nan nan nan nan nan nan nan nan nan nan nan nan nan nan nan nan nan nan nan nan nan nan
249 247 246 246 252 261 264 270 274 nan nan 274 nan nan nan nan nan nan nan nan nan nan nan nan nan nan nan nan nan nan nan nan nan nan nan nan nan nan nan nan nan nan
238 237 238 242 252 261 265 274 279 280 281 280 279 nan nan nan nan nan nan 271 270 273 277 nan nan 265 nan nan nan nan nan nan nan nan nan nan nan nan nan nan nan nan
234 236 239 241 250 258 265 272 276 280 279 278 277 278 280 281 278 277 nan 272 272 274 278 277 272 267 262 260 260 nan nan nan nan nan nan nan nan nan nan nan nan nan
234 235 241 243 253 262 266 272 273 277 277 279 281 281 284 284 285 280 277 275 270 272 275 276 272 267 263 258 259 262 262 259 261 nan nan nan nan nan nan nan nan nan
236 241 247 256 265 271 277 276 274 273 276 279 280 281 283 285 286 286 285 279 272 270 273 272 267 262 260 261 263 265 263 263 263 264 266 270 274 272 nan nan nan nan
240 246 255 262 267 268 276 275 272 271 274 277 277 276 278 280 285 288 286 283 277 273 272 270 266 261 263 267 272 272 267 266 268 270 271 270 267 267 nan nan 271 nan
247 251 256 259 260 259 268 271 271 271 272 276 273 274 277 279 282 283 285 285 280 277 271 270 268 265 268 273 274 270 265 265 268 270 271 271 270 268 269 267 268 270
245 246 249 253 255 255 263 264 266 267 269 271 273 273 270 273 277 279 281 283 278 272 266 262 260 261 267 273 271 268 266 265 265 268 269 269 272 272 270 271 274 276
242 239 238 240 249 248 249 259 262 265 270 273 273 272 272 273 274 275 273 273 274 271 268 267 266 266 268 270 267 264 264 265 265 265 268 269 269 270 268 267 269 272
245 243 248 254 255 256 253 252 260 265 270 271 271 270 269 273 276 273 267 264 265 265 265 266 269 270 270 268 266 263 262 261 261 260 260 265 267 266 266 264 262 262
249 245 245 249 256 260 261 258 262 266 269 268 264 262 260 264 267 267 265 264 265 267 268 268 267 267 265 264 266 265 260 258 257 257 259 262 269 272 269 268 268 265
257 256 255 255 260 263 267 270 269 270 269 269 268 268 263 250 251 260 264 268 271 271 270 268 266 262 nan nan nan 254 259 258 259 259 261 264 268 272 274 270 269 267
262 258 257 260 263 269 270 272 274 271 271 269 267 268 268 267 263 264 266 266 268 269 268 267 262 257 nan nan nan nan 253 259 258 259 260 264 269 270 271 271 269 268
264 262 260 258 260 263 265 267 268 268 268 269 270 270 268 266 267 267 265 264 264 265 264 262 259 254 nan nan nan nan nan 254 258 260 262 264 266 267 268 268 266 265
265 264 264 263 263 262 261 260 262 264 264 264 267 268 267 268 270 271 270 267 265 265 263 nan nan nan nan nan nan nan nan 258 261 261 264 265 264 264 263 263 263 263
264 264 264 264 263 263 264 265 266 266 267 266 265 265 266 265 267 269 268 266 264 nan nan nan nan nan nan nan nan nan nan 261 262 264 264 265 266 265 265 264 265 265
nan nan 263 263 264 264 264 264 264 266 267 265 264 265 265 266 264 262 261 nan nan nan nan nan nan nan nan nan nan nan nan nan 263 265 266 267 266 267 266 265 266 268
nan nan nan nan nan nan 265 265 264 264 264 264 265 264 264 nan nan nan nan nan nan nan nan nan nan nan nan nan nan nan nan 265 266 267 267 266 267 265 265 265 266 268
nan nan nan nan nan nan nan nan nan 265 nan nan nan nan nan nan nan nan nan nan nan nan nan nan nan nan nan nan nan nan nan nan nan nan nan 269 267 268 268 nan nan nan
nan nan nan nan nan nan nan nan nan nan nan nan nan nan nan nan nan nan nan nan nan nan nan nan nan nan nan nan nan nan nan 262 nan nan nan nan nan nan nan nan nan nan
nan nan nan nan nan nan nan nan nan nan nan nan nan nan nan nan nan nan nan nan nan 263 nan 262 nan nan nan nan nan nan nan 261 nan nan nan nan nan nan nan nan nan nan
nan nan nan nan nan nan nan nan nan 256 258 nan nan nan nan nan nan nan nan nan nan nan nan 262 nan nan nan nan nan nan nan nan nan nan nan nan nan nan nan nan nan nan